Regional Weather Roundup
Issued by NWS

Home | Current Version | Previous Version | Text Only | Print | Product List | Glossary On
Versions: 1 2 3 4 5 6 7 8 9 10 11 12 13 14 15 16 17 18 19 20 21 22 23 24 25 26 27 28 29 30 31 32 33 34 35 36 37 38 39 40 41 42 43 44 45 46 47 48 49 50
000
ASUS45 KBOI 180410
RWRID

IDAHO REGIONAL WEATHER ROUNDUP
NATIONAL WEATHER SERVICE BOISE ID
900 PM MST SAT FEB 17 2018

NOTE: "FAIR" INDICATES FEW OR NO CLOUDS BELOW 12000 FEET
WITH NO SIGNIFICANT WEATHER AND/OR OBSTRUCTIONS TO VISIBILITY

IDZ012-014-180500-
SOUTHWEST IDAHO


CITY           SKY/WX    TMP DP  RH WIND       PRES   REMARKS
BOISE          CLOUDY    45  32  60 NW3       29.66F
CALDWELL       CLOUDY    56  32  40 SW15      29.66F
MOUNTAIN HOME  CLOUDY    55  31  41 SW12      29.65F
$$

IDZ016-017-180500-
SOUTHCENTRAL IDAHO


CITY           SKY/WX    TMP DP  RH WIND       PRES   REMARKS
BURLEY         CLOUDY    50  23  34 SW21      29.66F
JEROME         CLOUDY    50  26  39 SW16      29.67F
TWIN FALLS     CLOUDY    50  26  39 S18G28    29.67F
$$

IDZ019>023-180500-
SOUTHEAST IDAHO


CITY           SKY/WX    TMP DP  RH WIND       PRES   REMARKS
IDAHO FALLS    CLOUDY    42  26  53 S24G32    29.62F
POCATELLO      CLOUDY    47  23  38 S20G29    29.65F
REXBURG        CLOUDY    39  28  64 S17G28    29.59F WCI  30
$$

IDZ006-010-011-018-031-032-180500-
CENTRAL IDAHO MOUNTAINS


CITY           SKY/WX    TMP DP  RH WIND       PRES   REMARKS
MCCALL         CLOUDY    36  30  79 SW8       29.58S WCI  30
HAILEY         LGT RAIN  37  34  87 SE8       29.68F WCI  31
STANLEY          N/A     36  30  79 S12G23    29.59F WCI  28
SALMON         LGT RAIN  41  34  75 W14G32    29.50R
CHALLIS        CLOUDY    41  32  70 S15G22    29.48F
$$

IDZ002-004-006-007-026-180500-
NORTHERN IDAHO


CITY           SKY/WX    TMP DP  RH WIND       PRES   REMARKS
LEWISTON       MOCLDY    47  32  56 W22G31    29.56R
LOWELL           N/A     33  32  96 CALM      29.61F
COEUR D`ALENE  MOCLDY    36  31  82 SW12      29.49R WCI  28
MULLAN PASS    LGT SNOW  22  21  96 W15G30    29.37R FOG     WCI   9
$$



USA.gov is the U.S. government's official web portal to all federal, state and local government web resources and services.